Tyrone, NM

1:42 PM MDT on September 28, 2016 (GMT -0600)
Grant County

Weather History for KSVC - April, 2014

Change the Weather History Date:

Tuesday, April 15, 2014

  Actual Average (KDMN) Record (KDMN)
Temperature  
Mean Temperature 46 °F 60 °F  
Max Temperature 66 °F 78 °F 92 °F (1962)
Min Temperature 26 °F 42 °F 28 °F (1983)
Degree Days  
Heating Degree Days 19    
Moisture  
Dew Point 9 °F    
Average Humidity 25    
Maximum Humidity 47    
Minimum Humidity 10    
Precipitation  
Precipitation 0.00 in 0.01 in 0.02 in (2003)
Month to date precipitation 0.18  
Year to date precipitation 1.80  
Sea Level Pressure  
Sea Level Pressure 30.16 in    
Wind  
Wind Speed 7 mph (SE)    
Max Wind Speed 16 mph    
Max Gust Speed 21 mph    
Visibility 10 miles    
Events      
T = Trace of Precipitation, MM = Missing Value Source: NWS Daily Summary

Daily Weather History Graph

Daily Weather History Graph

Search for Another Location

Airport or City:

Trip Planner

Search our weather history database for the weather conditions in past years. The results will help you decide how hot, cold, wet, or windy it might be!

Date:

Astronomy

Apr. 15, 2014 Rise Set
Actual Time 6:43 AM MDT 7:42 PM MDT
Civil Twilight 6:17 AM MDT 8:07 PM MDT
Nautical Twilight 5:47 AM MDT 8:37 PM MDT
Astronomical Twilight 5:17 AM MDT 9:08 PM MDT
Moon 8:24 PM MDT (4/15) 6:53 AM MDT (4/15)
Length of Visible Light 13h 50m
Length of Day
12h 59m
Full, 100% of the Moon is Illuminated
Apr 15
Full
Apr 22
Last Quarter
Apr 29
New
May 6
First Quarter
May 14
Full

Hourly Weather History & Observations

Time (MDT) Temp. Windchill Dew Point Humidity Pressure Visibility Wind Dir Wind Speed Gust Speed Precip Events Conditions
12:15 AM 41.0 °F 36.4 °F 14.0 °F 33% 30.27 in 10.0 mi SE 6.9 mph - N/A   Clear
12:35 AM 41.0 °F 36.4 °F 14.0 °F 33% 30.27 in 10.0 mi ESE 6.9 mph - N/A   Clear
12:55 AM 41.0 °F 35.2 °F 14.0 °F 33% 30.27 in 10.0 mi ESE 9.2 mph - N/A   Clear
1:15 AM 41.0 °F 35.8 °F 14.0 °F 33% 30.27 in 10.0 mi SE 8.1 mph - N/A   Clear
1:35 AM 39.2 °F - 12.2 °F 33% 30.27 in 10.0 mi Calm Calm - N/A   Clear
1:55 AM 39.2 °F 35.9 °F 14.0 °F 36% 30.27 in 10.0 mi SSW 4.6 mph - N/A   Clear
2:15 AM 37.4 °F - 10.4 °F 33% 30.26 in 10.0 mi Calm Calm - N/A   Clear
2:35 AM 32.0 °F 26.4 °F 8.6 °F 38% 30.26 in 10.0 mi NW 5.8 mph - N/A   Clear
2:55 AM 32.0 °F 26.4 °F 8.6 °F 38% 30.26 in 10.0 mi NW 5.8 mph - N/A   Clear
3:15 AM 32.0 °F 25.6 °F 8.6 °F 38% 30.26 in 10.0 mi WNW 6.9 mph - N/A   Clear
3:35 AM 28.4 °F 22.2 °F 8.6 °F 43% 30.25 in 10.0 mi NW 5.8 mph - N/A   Clear
3:55 AM 30.2 °F 24.3 °F 8.6 °F 40% 30.25 in 10.0 mi NW 5.8 mph - N/A   Clear
4:15 AM 28.4 °F 23.3 °F 8.6 °F 43% 30.25 in 10.0 mi NW 4.6 mph - N/A   Clear
4:35 AM 30.2 °F 25.4 °F 8.6 °F 40% 30.25 in 10.0 mi NNW 4.6 mph - N/A   Clear
4:55 AM 28.4 °F 24.6 °F 8.6 °F 43% 30.24 in 10.0 mi North 3.5 mph - N/A   Clear
5:15 AM 28.4 °F 23.3 °F 8.6 °F 43% 30.24 in 10.0 mi NNW 4.6 mph - N/A   Clear
5:35 AM 28.4 °F 23.3 °F 8.6 °F 43% 30.23 in 10.0 mi North 4.6 mph - N/A   Clear
5:55 AM 26.6 °F 18.2 °F 8.6 °F 47% 30.23 in 10.0 mi North 8.1 mph - N/A   Clear
6:15 AM 28.4 °F 19.7 °F 10.4 °F 47% 30.24 in 10.0 mi North 9.2 mph - N/A   Clear
6:35 AM 26.6 °F 17.5 °F 8.6 °F 47% 30.24 in 10.0 mi NNW 9.2 mph - N/A   Clear
6:55 AM 28.4 °F 20.4 °F 10.4 °F 47% 30.24 in 10.0 mi NNW 8.1 mph - N/A   Clear
7:15 AM 30.2 °F 23.4 °F 10.4 °F 44% 30.25 in 10.0 mi NNW 6.9 mph - N/A   Clear
7:35 AM 35.6 °F 31.7 °F 12.2 °F 38% 30.25 in 10.0 mi NNE 4.6 mph - N/A   Clear
7:55 AM 37.4 °F 34.9 °F 14.0 °F 38% 30.26 in 10.0 mi NNE 3.5 mph - N/A   Clear
8:15 AM 41.0 °F 38.0 °F 14.0 °F 33% 30.26 in 10.0 mi ESE 4.6 mph - N/A   Clear
8:35 AM 42.8 °F 38.6 °F 14.0 °F 31% 30.26 in 10.0 mi ESE 6.9 mph - N/A   Clear
8:55 AM 44.6 °F 40.2 °F 14.0 °F 29% 30.26 in 10.0 mi SE 8.1 mph - N/A   Clear
9:15 AM 44.6 °F 40.7 °F 14.0 °F 29% 30.25 in 10.0 mi SSE 6.9 mph - N/A   Clear
9:35 AM 46.4 °F 42.4 °F 14.0 °F 27% 30.25 in 10.0 mi ESE 8.1 mph - N/A   Clear
9:55 AM 48.2 °F - 14.0 °F 25% 30.25 in 10.0 mi SE 4.6 mph - N/A   Clear
10:15 AM 48.2 °F - 14.0 °F 25% 30.25 in 10.0 mi ESE 5.8 mph - N/A   Clear
10:55 AM 51.8 °F - 14.0 °F 22% 30.25 in 10.0 mi SE 9.2 mph - N/A   Clear
11:15 AM 53.6 °F - 14.0 °F 21% 30.24 in 10.0 mi SE 10.4 mph 16.1 mph N/A   Clear
11:55 AM 55.4 °F - 12.2 °F 18% 30.23 in 10.0 mi SSE 10.4 mph 18.4 mph N/A   Clear
12:15 PM 55.4 °F - 12.2 °F 18% 30.21 in 10.0 mi South 10.4 mph 19.6 mph N/A   Clear
12:35 PM 57.2 °F - 12.2 °F 17% 30.20 in 10.0 mi SSE 12.7 mph 20.7 mph N/A   Clear
12:55 PM 57.2 °F - 12.2 °F 17% 30.19 in 10.0 mi SSE 16.1 mph 20.7 mph N/A   Clear
1:15 PM 57.2 °F - 12.2 °F 17% 30.19 in 10.0 mi SE 10.4 mph 18.4 mph N/A   Clear
1:35 PM 59.0 °F - 10.4 °F 15% 30.18 in 10.0 mi SSE 11.5 mph 17.3 mph N/A   Clear
1:55 PM 59.0 °F - 10.4 °F 15% 30.16 in 10.0 mi SSE 10.4 mph 20.7 mph N/A   Clear
2:15 PM 60.8 °F - 10.4 °F 14% 30.15 in 10.0 mi South 10.4 mph 19.6 mph N/A   Clear
2:35 PM 60.8 °F - 10.4 °F 14% 30.14 in 10.0 mi SSE 10.4 mph 18.4 mph N/A   Clear
2:55 PM 62.6 °F - 8.6 °F 12% 30.13 in 10.0 mi South 9.2 mph 19.6 mph N/A   Clear
3:15 PM 64.4 °F - 8.6 °F 11% 30.11 in 10.0 mi South 9.2 mph 18.4 mph N/A   Clear
3:35 PM 64.4 °F - 8.6 °F 11% 30.09 in 10.0 mi SSW 5.8 mph 18.4 mph N/A   Clear
3:55 PM 64.4 °F - 6.8 °F 10% 30.08 in 10.0 mi SSE 16.1 mph - N/A   Clear
4:15 PM 64.4 °F - 6.8 °F 10% 30.07 in 10.0 mi SSW 13.8 mph 19.6 mph N/A   Clear
4:35 PM 64.4 °F - 6.8 °F 10% 30.06 in 10.0 mi SSW 8.1 mph 18.4 mph N/A   Clear
4:55 PM 64.4 °F - 6.8 °F 10% 30.05 in 10.0 mi South 5.8 mph - N/A   Clear
5:15 PM 64.4 °F - 6.8 °F 10% 30.05 in 10.0 mi South 11.5 mph 16.1 mph N/A   Clear
5:35 PM 66.2 °F - 6.8 °F 10% 30.04 in 10.0 mi South 11.5 mph - N/A   Clear
5:55 PM 64.4 °F - 6.8 °F 10% 30.03 in 10.0 mi South 9.2 mph - N/A   Clear
6:15 PM 64.4 °F - 6.8 °F 10% 30.03 in 10.0 mi South 9.2 mph - N/A   Clear
6:35 PM 64.4 °F - 6.8 °F 10% 30.02 in 10.0 mi SSE 6.9 mph - N/A   Clear
6:55 PM 64.4 °F - 6.8 °F 10% 30.01 in 10.0 mi SSW 5.8 mph - N/A   Clear
7:15 PM 64.4 °F - 6.8 °F 10% 30.00 in 10.0 mi SSE 6.9 mph - N/A   Clear
7:35 PM 62.6 °F - 6.8 °F 11% 30.00 in 10.0 mi SSE 5.8 mph - N/A   Clear
7:55 PM 59.0 °F - 6.8 °F 13% 30.00 in 10.0 mi SSE 3.5 mph - N/A   Clear
8:15 PM 59.0 °F - 6.8 °F 13% 30.00 in 10.0 mi SE 3.5 mph - N/A   Clear
8:35 PM 57.2 °F - 6.8 °F 13% 30.00 in 10.0 mi SE 5.8 mph - N/A   Clear
8:55 PM 57.2 °F - 6.8 °F 13% 30.00 in 10.0 mi SE 5.8 mph - N/A   Clear
9:15 PM 57.2 °F - 6.8 °F 13% 30.01 in 10.0 mi SE 5.8 mph - N/A   Clear
9:35 PM 51.8 °F - 5.0 °F 15% 30.01 in 10.0 mi East 3.5 mph - N/A   Clear
9:55 PM 46.4 °F 44.3 °F 5.0 °F 18% 30.01 in 10.0 mi NNW 4.6 mph - N/A   Clear
10:15 PM 42.8 °F 41.1 °F 5.0 °F 21% 30.01 in 10.0 mi North 3.5 mph - N/A   Clear
10:35 PM 41.0 °F 35.8 °F 3.2 °F 21% 30.02 in 10.0 mi North 8.1 mph - N/A   Clear
10:55 PM 41.0 °F 35.8 °F 5.0 °F 23% 30.01 in 10.0 mi North 8.1 mph - N/A   Clear
11:15 PM 42.8 °F 37.0 °F 5.0 °F 21% 30.01 in 10.0 mi North 10.4 mph - N/A   Clear
11:35 PM 44.6 °F 40.2 °F 5.0 °F 20% 30.01 in 10.0 mi North 8.1 mph - N/A   Clear
11:55 PM 44.6 °F 39.2 °F 6.8 °F 21% 30.00 in 10.0 mi North 10.4 mph - N/A   Clear